SL-16 DEB, 39853

Orbit data source: Space-Track

SL-16 DEB, 39853 is space debris in LEO originally from a launch on Fri, 25 Dec 1992 UTC launched from the Tyuratam Missile And Space Complex (TTMTR). Debris objects in space refer to the collection of defunct objects orbiting the Earth. Examples of debris include non-operational satellites, rocket bodies, and fragments generated from explosions, collisions, or faulty payload assembly.

Loading next visibility...
Identifier
39853, 1992-093LF
Orbit
LEO
Country
Flag of CISCIS
Related business
Manufacturer
Unknown
Mission
Spacecraft
Bus & Motor
Unknown
Mass
Unknown
Launch date (UTC)
1992-12-25 (33 years ago)
Launch vehicle
Unknown
Launch site
Tyuratam Missile And Space Complex (TTMTR)
Object type
Payload
Rocket body
Debris
Shape & HBR
Unknown shape, 0.1 m
Radar Cross Section
Small (<0.1 m²)

Expand to show TLE details & history
Last TLE update: 3 days ago

TLE from 3 days ago
0 SL-16 DEB
1 39853U 92093LF  26034.21769570  .00168054  00000-0  24255-2 0  9997
2 39853  71.2536  18.7569 0011386  83.0803 277.1689 15.55200826632499
Epoch: 2026-02-03T05:13Z
TLE epoch observation values (Epoch: 2026-02-03T05:13:28.908Z)
Latitude
-0.00005°
Longitude
166.98464°
Altitude
403.188 km
Speed
7.67 km/s
True Right ascension
01h 15m 01s
True Declination
0° 00' 00"
Sunlit
Object was in daylight at epoch
Visualization orbit readout
Latitude
Unknown
Longitude
Unknown
Altitude
Unknown
Speed
Unknown
Apparent Right ascension
Unknown
Apparent Declination
Unknown
Sunlit
N/A
Visualization observer readout
Local Sidereal Time
15:52:08
Azimuth
Unknown
Elevation
Unknown
Doppler factor
Unknown
Orbital elements
Apogee altitude
407.049 km
Perigee altitude
391.615 km
Semi-major axis
6,777.469 km
Eccentricity
0.00114
Inclination
71.2536°
RAAN
18.7569°
Arg. of periapsis
83.0803°
True anomaly
277.03942°
Mean anomaly
277.1689°
Eccentric anomaly
277.10416°
Mean motion
3.88993 °/min
Orbital period
92.55 mins
BSTAR
0.0024255
Loading maneuver chart data...
Computing Atmospheric mass density...

Documentation

Showing up to 5 results
|